Weather History for KCAR - March, 2014

Change the Weather History Date:

Sunday, March 2, 2014

  Actual Average Record
Temperature  
Mean Temperature 7 °F 19 °F  
Max Temperature 21 °F 29 °F 47 °F (1965)
Min Temperature -7 °F 9 °F -28 °F (2001)
Degree Days  
Heating Degree Days 58 46  
Month to date heating degree days 118 92  
Since 1 July heating degree days 6772 6813  
Cooling Degree Days 0 0  
Month to date cooling degree days 0 0  
Year to date cooling degree days 0 0  
Moisture  
Dew Point 0 °F    
Average Humidity 54    
Maximum Humidity 70    
Minimum Humidity 37    
Precipitation  
Precipitation T in 0.08 in 0.78 in (1983)
Month to date precipitation 0.03 0.16  
Year to date precipitation 6.25 5.08  
Snow  
Snow T in 0.70 in 6.40 in (2007)
Month to date snowfall 0.6 1.4  
Since 1 July snowfall 100.0 83.9  
Snow Depth 21.00 in    
Sea Level Pressure  
Sea Level Pressure 29.99 in    
Wind  
Wind Speed 8 mph (NW)    
Max Wind Speed 21 mph    
Max Gust Speed 25 mph    
Visibility 9 miles    
Events Snow    
T = Trace of Precipitation, MM = Missing Value Source: NWS Daily Summary

Daily Weather History Graph

Daily Weather History Graph

Search for Another Location

Airport or City:

Trip Planner

Search our weather history database for the weather conditions in past years. The results will help you decide how hot, cold, wet, or windy it might be!

Date:

Astronomy

Mar. 02, 2014 Rise Set
Actual Time 6:10 AM EST 5:19 PM EST
Civil Twilight 5:39 AM EST 5:49 PM EST
Nautical Twilight 5:04 AM EST 6:24 PM EST
Astronomical Twilight 4:29 AM EST 7:00 PM EST
Moon 6:31 AM EST (3/2) 7:20 PM EST (3/2)
Length of Visible Light 12h 10m
Length of Day
11h 09m
Waxing Crescent, 3% of the Moon is Illuminated
Mar 2
Waxing Crescent
Mar 8
First Quarter
Mar 16
Full
Mar 23
Last Quarter
Mar 30
New

Hourly Weather History & Observations

Time (EST) Temp. Windchill Dew Point Humidity Pressure Visibility Wind Dir Wind Speed Gust Speed Precip Events Conditions
12:54 AM 21.0 °F 14.6 °F 9.0 °F 60% 29.94 in 10.0 mi SSW 4.6 mph - N/A   Mostly Cloudy
1:54 AM 21.0 °F 13.4 °F 9.0 °F 60% 29.92 in 10.0 mi SW 5.8 mph - N/A   Overcast
2:54 AM 19.9 °F 12.1 °F 8.1 °F 60% 29.91 in 10.0 mi SW 5.8 mph - N/A   Overcast
3:54 AM 19.9 °F 12.1 °F 8.1 °F 60% 29.92 in 10.0 mi WSW 5.8 mph - N/A   Overcast
4:54 AM 19.9 °F 12.1 °F 10.9 °F 68% 29.94 in 10.0 mi West 5.8 mph - N/A   Overcast
5:16 AM 18.0 °F 4.2 °F 12.0 °F 78% 29.91 in 1.8 mi NW 13.8 mph 20.7 mph 0.00 in Snow Light Snow
5:26 AM 18.0 °F 5.4 °F 12.0 °F 78% 29.91 in 1.5 mi NW 11.5 mph - 0.00 in Snow Light Snow
5:45 AM 15.1 °F -1.1 °F 10.0 °F 80% 29.93 in 2.5 mi NW 17.3 mph - 0.00 in Snow Light Snow
5:52 AM 15.8 °F 1.4 °F 8.6 °F 73% 29.94 in 3.0 mi NW 13.8 mph 25.3 mph 0.00 in Snow Light Snow
5:54 AM 15.1 °F -1.6 °F 9.0 °F 77% 29.99 in 3.0 mi NW 18.4 mph 25.3 mph 0.00 in Snow Light Snow
6:03 AM 14.0 °F -1.4 °F 8.1 °F 77% 29.95 in 6.0 mi NNW 15.0 mph 25.3 mph 0.00 in   Overcast
6:54 AM 12.9 °F -0.9 °F 5.0 °F 71% 30.02 in 10.0 mi NW 11.5 mph - 0.00 in   Overcast
7:54 AM 12.9 °F 0.7 °F 5.0 °F 71% 30.04 in 8.0 mi NNW 9.2 mph - N/A   Overcast
8:54 AM 15.1 °F 1.8 °F 5.0 °F 64% 30.04 in 10.0 mi NNW 11.5 mph - N/A   Mostly Cloudy
9:54 AM 15.1 °F 3.3 °F 3.9 °F 61% 30.06 in 10.0 mi NNW 9.2 mph - 0.00 in   Overcast
10:08 AM 16.0 °F 5.3 °F -0.0 °F 49% 30.01 in 10.0 mi NNE 8.1 mph - N/A   Mostly Cloudy
10:54 AM 16.0 °F 3.6 °F 1.0 °F 52% 30.04 in 10.0 mi NW 10.4 mph - N/A   Mostly Cloudy
11:54 AM 16.0 °F 6.3 °F -2.0 °F 45% 30.03 in 10.0 mi NNW 6.9 mph - N/A   Partly Cloudy
12:54 PM 16.0 °F 3.6 °F -6.0 °F 38% 30.01 in 10.0 mi WNW 10.4 mph - N/A   Clear
1:54 PM 17.1 °F 3.6 °F -6.0 °F 36% 29.99 in 10.0 mi NNW 12.7 mph - N/A   Clear
2:54 PM 16.0 °F 3.6 °F -4.0 °F 41% 29.99 in 10.0 mi NW 10.4 mph - N/A   Clear
3:54 PM 15.1 °F 2.5 °F -6.0 °F 39% 29.99 in 10.0 mi NNW 10.4 mph - N/A   Clear
4:54 PM 12.0 °F 0.5 °F -7.1 °F 42% 30.00 in 10.0 mi North 8.1 mph - N/A   Clear
5:54 PM 9.0 °F -4.2 °F -8.0 °F 46% 30.02 in 10.0 mi North 9.2 mph - N/A   Clear
6:54 PM 6.1 °F -6.8 °F -9.0 °F 50% 30.03 in 10.0 mi North 8.1 mph - N/A   Clear
7:54 PM 5.0 °F -8.1 °F -9.9 °F 50% 30.03 in 10.0 mi North 8.1 mph - N/A   Clear
8:54 PM 1.0 °F -11.7 °F -11.9 °F 55% 30.03 in 10.0 mi North 6.9 mph - N/A   Clear
9:54 PM 1.0 °F -10.3 °F -11.9 °F 55% 30.03 in 10.0 mi NW 5.8 mph - N/A   Clear
10:54 PM -2.9 °F - -14.1 °F 59% 30.02 in 10.0 mi Calm Calm - N/A   Clear
11:54 PM -7.1 °F -18.1 °F -14.1 °F 72% 30.02 in 10.0 mi WSW 4.6 mph - N/A   Clear